TimeEDT,TemperatureF,Dew PointF,Humidity,Sea Level PressureIn,VisibilityMPH,Wind Direction,Wind SpeedMPH,Gust SpeedMPH,PrecipitationIn,Events,Conditions,WindDirDegrees,DateUTC
12:54 AM,71.1,68.0,90,30.04,10.0,Calm,Calm,-,N/A,,Partly Cloudy,0,2013-08-09 04:54:00
1:54 AM,70.0,68.0,93,30.04,10.0,Calm,Calm,-,N/A,,Clear,0,2013-08-09 05:54:00
2:54 AM,69.1,68.0,96,30.04,9.0,Calm,Calm,-,N/A,,Clear,0,2013-08-09 06:54:00
3:54 AM,70.0,68.0,93,30.04,9.0,Variable,3.5,-,N/A,,Clear,0,2013-08-09 07:54:00
4:09 AM,69.8,68.0,94,30.11,9.0,Calm,Calm,-,N/A,,Partly Cloudy,0,2013-08-09 08:09:00
4:54 AM,70.0,68.0,93,30.03,10.0,Calm,Calm,-,N/A,,Clear,0,2013-08-09 08:54:00
5:54 AM,69.1,66.9,93,30.04,7.0,Calm,Calm,-,N/A,,Clear,0,2013-08-09 09:54:00
6:54 AM,68.0,66.9,96,30.06,6.0,Calm,Calm,-,N/A,,Clear,0,2013-08-09 10:54:00
7:10 AM,68.0,66.2,94,30.14,2.5,Calm,Calm,-,N/A,,Clear,0,2013-08-09 11:10:00
7:54 AM,70.0,66.9,90,30.07,2.5,Calm,Calm,-,N/A,,Clear,0,2013-08-09 11:54:00
8:14 AM,69.8,68.0,94,30.15,8.0,Calm,Calm,-,N/A,,Clear,0,2013-08-09 12:14:00
8:32 AM,69.8,68.0,94,30.16,8.0,SW,3.5,-,N/A,,Partly Cloudy,220,2013-08-09 12:32:00
8:54 AM,71.1,68.0,90,30.09,8.0,Calm,Calm,-,N/A,,Partly Cloudy,0,2013-08-09 12:54:00
9:54 AM,75.0,69.1,82,30.08,10.0,Calm,Calm,-,N/A,,Scattered Clouds,0,2013-08-09 13:54:00
10:54 AM,79.0,70.0,74,30.08,10.0,Calm,Calm,-,N/A,,Mostly Cloudy,0,2013-08-09 14:54:00
11:54 AM,81.0,69.1,67,30.07,10.0,Calm,Calm,-,N/A,,Partly Cloudy,0,2013-08-09 15:54:00
12:54 PM,79.0,70.0,74,30.07,3.0,WNW,3.5,-,0.01,Rain,Rain,300,2013-08-09 16:54:00
1:01 PM,78.8,71.6,78,30.16,1.5,NNW,6.9,-,0.01,Rain,Heavy Rain,330,2013-08-09 17:01:00
1:08 PM,75.2,69.8,83,30.15,1.2,NNW,6.9,-,0.11,Rain,Heavy Rain,340,2013-08-09 17:08:00
1:24 PM,73.4,71.6,94,30.14,2.0,Calm,Calm,-,0.31,Rain,Light Rain,0,2013-08-09 17:24:00
1:32 PM,75.2,71.6,89,30.14,10.0,Calm,Calm,-,0.31,,Mostly Cloudy,0,2013-08-09 17:32:00
1:54 PM,81.0,70.0,69,30.05,10.0,NE,3.5,-,0.31,,Partly Cloudy,40,2013-08-09 17:54:00
2:28 PM,73.4,71.6,94,30.15,1.8,West,6.9,-,0.07,Rain,Heavy Rain,260,2013-08-09 18:28:00
2:42 PM,73.4,69.8,88,30.15,2.5,WSW,5.8,-,0.13,Rain,Rain,240,2013-08-09 18:42:00
2:50 PM,73.4,71.6,94,30.15,4.0,SSW,5.8,-,0.14,Rain,Heavy Rain,210,2013-08-09 18:50:00
2:54 PM,73.0,70.0,90,30.08,3.0,SW,4.6,-,0.15,Rain,Rain,220,2013-08-09 18:54:00
3:19 PM,73.4,71.6,94,30.14,1.8,SSE,4.6,-,0.06,Rain,Heavy Rain,150,2013-08-09 19:19:00
3:28 PM,73.4,71.6,94,30.14,3.0,SE,4.6,-,0.11,Rain,Light Rain,130,2013-08-09 19:28:00
3:54 PM,78.1,73.0,84,30.04,10.0,Calm,Calm,-,0.11,,Partly Cloudy,0,2013-08-09 19:54:00
4:54 PM,78.1,68.0,71,30.05,10.0,South,8.1,-,N/A,,Partly Cloudy,180,2013-08-09 20:54:00
5:11 PM,77.0,68.0,74,30.13,10.0,South,9.2,-,N/A,Thunderstorm,Thunderstorm,180,2013-08-09 21:11:00
5:54 PM,75.9,69.1,79,30.05,9.0,South,6.9,-,0.00,Rain-Thunderstorm,Light Thunderstorms and Rain,190,2013-08-09 21:54:00
6:54 PM,75.0,72.0,90,30.04,10.0,SSE,3.5,-,0.05,Thunderstorm,Thunderstorm,160,2013-08-09 22:54:00
7:54 PM,75.0,72.0,90,30.05,10.0,Calm,Calm,-,N/A,,Clear,0,2013-08-09 23:54:00
8:54 PM,73.0,71.1,93,30.06,10.0,Calm,Calm,-,0.00,Rain,Light Rain,0,2013-08-10 00:54:00
9:54 PM,73.0,71.1,93,30.09,8.0,Calm,Calm,-,N/A,,Clear,0,2013-08-10 01:54:00
10:54 PM,73.0,70.0,90,30.09,10.0,South,4.6,-,N/A,,Partly Cloudy,190,2013-08-10 02:54:00
11:54 PM,72.0,70.0,93,30.09,10.0,Calm,Calm,-,N/A,,Mostly Cloudy,0,2013-08-10 03:54:00